Location: Kershaw
(34.5481°N, 80.5823°W)
Time: 15:05:59
(UTC+00:00)

Courier 1B Rocket - Pass Details

Date: 27 September 2022
Orbit: 920 x 1202 km, 28.2° (Epoch: 08 December)

Event Time Altitude Azimuth Distance (km) Brightness Sun altitude
Rises 00:15:16 0° 202° (SSW) 3,644 8.2 -13.6°
Reaches altitude 10° 00:20:05 10° 171° (S) 2,647 7.1 -14.5°
Maximum altitude 00:22:06 12° 152° (SSE) 2,517 6.8 -15.0°
Enters shadow 00:23:09 11° 142° (SE) 2,542 6.8 -15.2°
Drops below altitude 10° 00:24:06 10° 133° (SE) 2,618 - -15.4°
Sets 00:28:45 0° 102° (ESE) 3,547 - -16.3°
